COSMOS 1823 DEB, 39820

Orbit data source: Space-Track

COSMOS 1823 DEB, 39820 is space debris in LEO originally from a launch on Fri, 20 Feb 1987 UTC launched from the Plesetsk Missile And Space Complex (PKMTR). Debris objects in space refer to the collection of defunct objects orbiting the Earth. Examples of debris include non-operational satellites, rocket bodies, and fragments generated from explosions, collisions, or faulty payload assembly.

Loading next visibility...
Identifier
39820, 1987-020EU
Orbit
LEO
Country
Flag of CISCIS
Related business
Manufacturer
Unknown
Mission
Spacecraft
Bus & Motor
Unknown
Mass
Unknown
Launch date (UTC)
1987-02-20 (39 years ago)
Launch vehicle
Unknown
Launch site
Plesetsk Missile And Space Complex (PKMTR)
Object type
Payload
Rocket body
Debris
Shape & HBR
Unknown shape, 0.1 m
Radar Cross Section
Medium (>0.1 m² and <1 m²)

Expand to show TLE details & history
Last TLE update: 4 days ago

TLE from 4 days ago
0 COSMOS 1823 DEB
1 39820U 87020EU  26169.73834814  .00000091  00000-0  75270-3 0  9995
2 39820  73.6340 335.0684 0028610  85.5981 295.3990 12.45762062547478
Epoch: 2026-06-18T17:43Z
TLE epoch observation values (Epoch: 2026-06-18T17:43:13.279Z)
Latitude
19.8338°
Longitude
168.33616°
Altitude
1,474.633 km
Speed
7.132 km/s
True Right ascension
22h 44m 28s
True Declination
19° 44' 03"
Sunlit
Object was in daylight at epoch
Visualization orbit readout
Latitude
Unknown
Longitude
Unknown
Altitude
Unknown
Speed
Unknown
Apparent Right ascension
Unknown
Apparent Declination
Unknown
Sunlit
N/A
Visualization observer readout
Local Sidereal Time
08:24:57
Azimuth
Unknown
Elevation
Unknown
Doppler factor
Unknown
Orbital elements
Apogee altitude
1,502.625 km
Perigee altitude
1,457.66 km
Semi-major axis
7,858.279 km
Eccentricity
0.00286
Inclination
73.634°
RAAN
335.0684°
Arg. of periapsis
85.5981°
True anomaly
295.10239°
Mean anomaly
295.399°
Eccentric anomaly
295.25074°
Mean motion
3.11567 °/min
Orbital period
115.54 mins
BSTAR
0.0007527
Loading maneuver chart data...
Computing Atmospheric mass density...

Documentation

Showing up to 5 results
|